Tacoma Narrows, WA
on Wednesday, November 14, 2012

Wednesday
Previous Day Next Day
Daily Summary
 ActualAverageRecord
Temperature
Mean Temperature °F / °C °F / °C  
Max Temperature 50°F / 10°C 49°F / 9°C 61°F / 16°C (2001)
Min Temperature 43°F / 6°C 40°F / 4°C 36°F / 2°C (2005)
Degree Days
Heating Degree Days 18    
Moisture
Dew Point 45°F / 7°C   
Average Humidity 89    
Maximum Humidity 93    
Minimum Humidity 80    
Precipitation
Precipitation 0.02 in / 0.51 cm in / cm in / cm ()
Wind
Wind Speed 5 mph / 8 km/h   
Max Wind Speed 8 mph / 13 km/h   
Max Gust Speed mph / km/h   
Visibility 9 miles / 15 kilometers   
Events Rain   
Averages and records for this station are not official NWS values.
Key: T is trace of precipitation, MM is missing value
Source: NWS Daily Summary
Seasonal Weather Averages
Time(PST)TemperatureDew PointHumidity Pressure Visibility Wind DirectionWind SpeedGust SpeedPrecipitationEvents Conditions
12:31 AM 48.2°F / 9.0°C 46.4°F / 8.0°C 93% 30.19 in / 1022.2 hPa 10.0 miles / 16.1 kilometers SSW 5.8 mph / 9.3 km/h - 0.00 in / 0.0 cm   Overcast
12:44 AM 48.2°F / 9.0°C 46.4°F / 8.0°C 93% 30.19 in / 1022.2 hPa 10.0 miles / 16.1 kilometers South 4.6 mph / 7.4 km/h - 0.00 in / 0.0 cm   Overcast
12:53 AM 48.9°F / 9.4°C 46.9°F / 8.3°C 93% 30.19 in / 1022.3 hPa 10.0 miles / 16.1 kilometers South 5.8 mph / 9.3 km/h - 0.00 in / 0.0 cm   Overcast
1:27 AM 48.2°F / 9.0°C 46.4°F / 8.0°C 93% 30.20 in / 1022.6 hPa 10.0 miles / 16.1 kilometers SSW 5.8 mph / 9.3 km/h - N/A   Mostly Cloudy
1:39 AM 48.2°F / 9.0°C 44.6°F / 7.0°C 87% 30.20 in / 1022.6 hPa 10.0 miles / 16.1 kilometers SW 6.9 mph / 11.1 km/h - N/A   Partly Cloudy
1:53 AM 48.0°F / 8.9°C 45.0°F / 7.2°C 89% 30.20 in / 1022.6 hPa 10.0 miles / 16.1 kilometers SSW 4.6 mph / 7.4 km/h - N/A   Mostly Cloudy
2:15 AM 48.2°F / 9.0°C 46.4°F / 8.0°C 93% 30.20 in / 1022.6 hPa 10.0 miles / 16.1 kilometers SSW 8.1 mph / 13.0 km/h - N/A   Mostly Cloudy
2:42 AM 48.2°F / 9.0°C 46.4°F / 8.0°C 93% 30.20 in / 1022.6 hPa 6.0 miles / 9.7 kilometers SW 5.8 mph / 9.3 km/h - N/A   Mostly Cloudy
2:53 AM 48.9°F / 9.4°C 46.9°F / 8.3°C 93% 30.21 in / 1022.9 hPa 7.0 miles / 11.3 kilometers SSW 5.8 mph / 9.3 km/h - N/A   Overcast
3:17 AM 48.2°F / 9.0°C 46.4°F / 8.0°C 93% 30.21 in / 1022.9 hPa 10.0 miles / 16.1 kilometers South 5.8 mph / 9.3 km/h - N/A   Overcast
3:53 AM 48.9°F / 9.4°C 46.0°F / 7.8°C 90% 30.21 in / 1022.9 hPa 10.0 miles / 16.1 kilometers South 8.1 mph / 13.0 km/h - N/A   Overcast
4:53 AM 48.0°F / 8.9°C 45.0°F / 7.2°C 89% 30.22 in / 1023.2 hPa 10.0 miles / 16.1 kilometers SSW 6.9 mph / 11.1 km/h - N/A   Overcast
5:12 AM 48.2°F / 9.0°C 44.6°F / 7.0°C 87% 30.22 in / 1023.2 hPa 10.0 miles / 16.1 kilometers SSW 5.8 mph / 9.3 km/h - N/A   Overcast
5:53 AM 48.0°F / 8.9°C 45.0°F / 7.2°C 89% 30.24 in / 1023.9 hPa 10.0 miles / 16.1 kilometers Calm Calm - 0.00 in / 0.0 cm Rain Light Rain
6:21 AM 48.2°F / 9.0°C 44.6°F / 7.0°C 87% 30.24 in / 1023.9 hPa 10.0 miles / 16.1 kilometers SW 3.5 mph / 5.6 km/h - 0.00 in / 0.0 cm   Overcast
6:53 AM 48.0°F / 8.9°C 45.0°F / 7.2°C 89% 30.25 in / 1024.3 hPa 7.0 miles / 11.3 kilometers SW 3.5 mph / 5.6 km/h - 0.01 in / 0.3 cm Rain Light Rain
7:03 AM 48.2°F / 9.0°C 46.4°F / 8.0°C 93% 30.25 in / 1024.3 hPa 6.0 miles / 9.7 kilometers Calm Calm - 0.00 in / 0.0 cm Rain Light Rain
7:12 AM 48.2°F / 9.0°C 44.6°F / 7.0°C 87% 30.25 in / 1024.3 hPa 7.0 miles / 11.3 kilometers Calm Calm - 0.00 in / 0.0 cm Rain Light Rain
7:53 AM 46.9°F / 8.3°C 45.0°F / 7.2°C 93% 30.27 in / 1025.0 hPa 10.0 miles / 16.1 kilometers Calm Calm - 0.00 in / 0.0 cm   Mostly Cloudy
8:53 AM 48.9°F / 9.4°C 46.0°F / 7.8°C 90% 30.29 in / 1025.5 hPa 10.0 miles / 16.1 kilometers Calm Calm - N/A   Overcast
9:53 AM 48.0°F / 8.9°C 46.0°F / 7.8°C 93% 30.30 in / 1026.0 hPa 10.0 miles / 16.1 kilometers NW 3.5 mph / 5.6 km/h - N/A   Overcast
10:53 AM 48.9°F / 9.4°C 45.0°F / 7.2°C 86% 30.32 in / 1026.5 hPa 10.0 miles / 16.1 kilometers North 3.5 mph / 5.6 km/h - N/A   Overcast
11:53 AM 48.9°F / 9.4°C 45.0°F / 7.2°C 86% 30.32 in / 1026.5 hPa 10.0 miles / 16.1 kilometers North 5.8 mph / 9.3 km/h - N/A   Overcast
12:53 PM 48.9°F / 9.4°C 45.0°F / 7.2°C 86% 30.31 in / 1026.4 hPa 10.0 miles / 16.1 kilometers NE 3.5 mph / 5.6 km/h - N/A   Overcast
1:53 PM 50.0°F / 10.0°C 45.0°F / 7.2°C 83% 30.31 in / 1026.2 hPa 10.0 miles / 16.1 kilometers North 5.8 mph / 9.3 km/h - N/A   Overcast
2:53 PM 48.9°F / 9.4°C 44.1°F / 6.7°C 83% 30.31 in / 1026.4 hPa 10.0 miles / 16.1 kilometers North 3.5 mph / 5.6 km/h - N/A   Overcast
3:53 PM 48.9°F / 9.4°C 43.0°F / 6.1°C 80% 30.31 in / 1026.4 hPa 10.0 miles / 16.1 kilometers North 3.5 mph / 5.6 km/h - N/A   Overcast
4:53 PM 48.0°F / 8.9°C 42.1°F / 5.6°C 80% 30.31 in / 1026.3 hPa 10.0 miles / 16.1 kilometers North 8.1 mph / 13.0 km/h - N/A   Mostly Cloudy
5:53 PM 46.9°F / 8.3°C 42.1°F / 5.6°C 83% 30.31 in / 1026.4 hPa 10.0 miles / 16.1 kilometers NNE 4.6 mph / 7.4 km/h - N/A   Scattered Clouds
6:53 PM 46.0°F / 7.8°C 42.1°F / 5.6°C 86% 30.31 in / 1026.3 hPa 10.0 miles / 16.1 kilometers NNE 5.8 mph / 9.3 km/h - N/A   Clear
7:53 PM 46.0°F / 7.8°C 42.1°F / 5.6°C 86% 30.31 in / 1026.3 hPa 10.0 miles / 16.1 kilometers NNE 6.9 mph / 11.1 km/h - N/A   Clear
8:53 PM 46.0°F / 7.8°C 42.1°F / 5.6°C 86% 30.31 in / 1026.3 hPa 10.0 miles / 16.1 kilometers NNE 5.8 mph / 9.3 km/h - N/A   Clear
9:53 PM 45.0°F / 7.2°C 42.1°F / 5.6°C 90% 30.30 in / 1026.1 hPa 10.0 miles / 16.1 kilometers Calm Calm - N/A   Clear
10:53 PM 43.0°F / 6.1°C 39.9°F / 4.4°C 89% 30.28 in / 1025.4 hPa 10.0 miles / 16.1 kilometers North 6.9 mph / 11.1 km/h - N/A   Clear
11:53 PM 44.1°F / 6.7°C 42.1°F / 5.6°C 93% 30.28 in / 1025.3 hPa 7.0 miles / 11.3 kilometers Calm Calm - 0.01 in / 0.3 cm   Partly Cloudy
Moon Phase
Nov. 14 Nov. 20 Nov. 28 Dec. 06 Dec. 13
Sunrise:07:13 AM (PST) Moon Rise:08:13 AM (PST)11/14
Sunset:04:35 PM (PST) Moon Set:05:24 PM (PST)11/14

Copyright © 2014 The Weather Underground, Inc.